Tracking 29892 objects as of 21-Nov-2024
HD Live streaming from Space Station
objects crossing your sky now

STARLINK-31896

Track STARLINK-31896 now!
10-day predictions
STARLINK-31896 is classified as:


NORAD ID: 59851
Int'l Code: 2024-097S
Perigee: 449.5 km
Apogee: 452.9 km
Inclination: 43.0 °
Period: 93.5 minutes
Semi major axis: 6822 km
RCS: Unknown
Launch date: May 23, 2024
Source: United States (US)
Launch site: AIR FORCE EASTERN TEST RANGE (AFETR)
Your satellite tracking list
Your tracking list is empty




NASA's NSSDC Master Catalog

Two Line Element Set (TLE):
1 59851U 24097S   24325.79773212 -.00001421  00000-0 -26735-4 0  9991
2 59851  43.0069  83.4190 0002502 268.2728  91.7842 15.40698991 29319
Source of the keplerian elements: AFSPC